Regional Weather Roundup
Issued by NWS

Home | Current Version | Previous Version | Graphics & Text | Print | Product List | Glossary Off
Versions: 1 2 3 4 5 6 7 8 9 10 11 12 13 14 15 16 17 18 19 20 21 22 23 24 25 26 27 28 29 30 31 32 33 34 35 36 37 38 39 40 41 42 43 44 45 46 47 48 49 50

000
ASUS43 KDMX 241101
RWRIA

WEATHER ROUNDUP FOR IOWA
NATIONAL WEATHER SERVICE DES MOINES IA
600 AM CDT WED MAY 24 2017

NOTE: "FAIR" INDICATES FEW OR NO CLOUDS BELOW 12,000 FEET WITH NO
SIGNIFICANT WEATHER AND/OR OBSTRUCTIONS TO VISIBILITY.

* - THESE STATIONS ARE NOT NWS STATIONS...THUS NOT UNDER NWS
QUALITY CONTROL.  THEY ALSO DO NOT REPORT WEATHER SUCH
AS PRECIPITATION OR FOG.

IAZ001>003-012>014-020>022-031>034-043>046-241200-
   NORTHWEST IOWA

CITY           SKY/WX    TMP DP  RH WIND       PRES   REMARKS
CARROLL *      PTCLDY    48  48 100 N9        29.73S
CHEROKEE *     CLEAR     43  43 100 N6        29.77S
DENISON *        N/A     45  45 100 N5        29.77S
LE MARS *      CLEAR     45  45 100 N6        29.80F
ORANGE CITY *  CLEAR     45  45 100 N8        29.79S
SHELDON *      CLEAR     43  41  93 NW9         N/A
SIOUX CITY     CLEAR     45  45 100 NW9       29.80S
SPENCER        CLEAR     45  44  97 N9        29.77S
STORM LAKE *   CLEAR     45  43  93 N12       29.76S
$$

IAZ055>058-069>071-079>083-090>094-241200-
   SOUTHWEST IOWA

CITY           SKY/WX    TMP DP  RH WIND       PRES   REMARKS
ATLANTIC *     CLOUDY    50  48  93 N9        29.73R
AUDUBON *      PTCLDY    50  46  87 N10       29.73S
CLARINDA *     CLOUDY    52  48  87 N10       29.74S
COUNCIL BLFS * PTCLDY    48  48 100 NW10G16   29.76S
CRESTON *      CLOUDY    50  50 100 N15       29.70S
HARLAN  *      CLOUDY    48  48 100 N14       29.77S
LAMONI         CLOUDY    49  48  97 NW7       29.67F
RED OAK *      CLOUDY    52  48  87 NW10G17   29.74R
SHENANDOAH *   CLOUDY    50  48  93 NW12G18   29.74S
$$

IAZ047>049-059>061-072>074-084-241200-
   CENTRAL IOWA

CITY           SKY/WX    TMP DP  RH WIND       PRES   REMARKS
AMES           CLOUDY    52  50  93 N12       29.68F
ANKENY *       CLOUDY    52  50  93 N10       29.68S
BOONE *        CLOUDY    52  52 100 N13       29.69S
CHARITON *     CLOUDY    50  48  93 NW7       29.66S
DES MOINES     LGT RAIN  53  50  89 N10       29.67F
GRINNELL*      CLOUDY    50  49  97 N7        29.67S
KNOXVILLE *    CLOUDY    52  50  93 NW6       29.65S
MARSHALLTOWN   LGT RAIN  51  51 100 N13       29.67S FOG
NEWTON *       CLOUDY    52  50  93 N9        29.66S
PELLA *        MOCLDY    50  49  98 N5        29.66F
PERRY *        CLOUDY    52  50  93 N12       29.70S
$$

IAZ004>006-015-016-023>025-035-036-241200-
   NORTH CENTRAL IOWA

CITY           SKY/WX    TMP DP  RH WIND       PRES   REMARKS
ALGONA *       CLEAR     46  46 100 N10       29.74S
CLARION *      PTCLDY    48  48 100 N13       29.71S
ESTHERVILLE    CLEAR     44  44 100 N12       29.76S
FORT DODGE *   CLOUDY    48  46  93 N7        29.73S
MASON CITY     CLOUDY    48  45  89 N10       29.73S
FOREST CITY *    N/A     46  41  81 N8        29.73S
WEBSTER CITY * CLOUDY    50  48  93 N12       29.69S
IOWA FALLS *   DRIZZLE   51  49  93 N8        29.70S
$$

IAZ007>011-017>019-026>030-037>042-050>054-066-241200-
   NORTHEAST IOWA

CITY           SKY/WX    TMP DP  RH WIND       PRES   REMARKS
CEDAR RAPIDS   CLOUDY    51  51 100 N7        29.63S
CHARLES CITY * CLOUDY    50  48  93 NE14      29.71S
CLINTON *      FOG       51  50  96 NE8       29.63S VSB 1
DECORAH *      CLOUDY    50  48  93 N6G12     29.69S
DUBUQUE        CLOUDY    51  50  96 NE8       29.64S
MONTICELLO *   CLOUDY    54  52  94 N6        29.64S
OELWEIN *      CLOUDY    50  50 100 NE12      29.68S
WATERLOO       CLOUDY    51  49  92 N9        29.67S
$$

IAZ064-065-067-068-078-241200-
   EAST CENTRAL IOWA

CITY           SKY/WX    TMP DP  RH WIND       PRES   REMARKS
DAVENPORT      FOG       49  48  97 N8        29.63R VSB 3/4
IOWA CITY      CLOUDY    51  48  89 NW5       29.65S
MT. PLEASANT * CLEAR     47  47 100 NW5       29.63S
MUSCATINE *    MOCLDY    50  48  93 NW3       29.63S
QUAD CITIES    CLOUDY    50  47  89 CALM      29.62S
$$

IAZ062-063-075>077-085>089-095>099-241200-
   SOUTHEAST IOWA

CITY           SKY/WX    TMP DP  RH WIND       PRES   REMARKS
BURLINGTON     CLEAR     47  47 100 NW7       29.61F
FAIRFIELD *    PTCLDY    45  45 100 NW7       29.63F FOG
FORT MADISON * CLEAR     46  46 100 NW3       29.63S
KEOKUK *       CLEAR     46  45  93 W5        29.62S
OSKALOOSA *    MOCLDY    47  46  97 N5        29.65F
OTTUMWA        CLOUDY    49  49 100 NW6       29.64F FOG
WASHINGTON *   CLOUDY    48  46  93 NW6       29.65R FOG
$$

ABBREVIATIONS USED IN REMARKS
   TC - TEMPERATURES IN CELSIUS
  WCI - WIND CHILL INDEX
   HX - HEAT INDEX
  VSB - VISIBILITY
$$





USA.gov is the U.S. government's official web portal to all federal, state and local government web resources and services.